GFSWCAN_sfc_wetblb_021.txt.gz
Wetbulb
44.43 44.75 44.92 45.27 45.45 45.34 45.27 45.33 45.96 45.82 46.12 45.61 45.98 46.14 46.21 46.32 46.36 43.86 41.20 44.58 39.03 32.75 33.99 34.53 34.93 31.40 30.97 31.05 26.92 25.63 26.55 25.93 26.13 21.49 20.60 20.36 18.69 21.48 19.15 22.14 20.83 18.57 17.03 16.43 16.34 12.12 9.44 27.56 25.01 20.08 26.69 29.06 29.00 28.43
43.09 43.49 44.22 44.70 44.80 45.07 45.25 45.35 45.33 45.42 45.85 45.72 45.95 45.73 45.63 46.05 46.19 45.71 39.28 41.37 41.37 33.82 34.62 38.72 38.19 38.76 37.36 36.14 33.41 28.27 31.30 27.18 28.69 24.81 25.10 24.51 20.46 21.81 19.50 14.46 25.14 15.80 21.43 18.73 19.95 19.38 28.19 28.47 27.34 30.69 31.29 28.89 29.59 29.10
42.67 42.75 43.16 43.68 43.61 43.88 44.41 44.93 45.11 45.18 45.29 45.10 45.38 45.50 45.31 45.25 45.34 44.76 41.98 40.96 38.23 32.51 32.46 33.31 33.03 37.89 39.34 38.90 40.04 30.50 30.96 32.80 29.87 33.54 30.03 25.90 20.32 23.96 17.08 18.11 20.75 24.54 27.68 21.45 21.16 24.26 26.23 28.45 30.33 31.09 31.50 30.26 31.02 31.19
42.49 42.76 42.62 42.55 42.63 42.75 43.25 43.51 44.19 44.71 44.98 45.17 45.07 45.19 45.43 45.57 45.50 45.10 41.03 42.60 39.29 34.97 29.01 32.15 36.86 36.00 40.64 40.02 37.95 37.86 36.15 34.51 33.51 32.19 26.90 24.86 21.79 27.31 22.02 23.66 22.66 25.78 25.92 22.59 22.12 25.24 26.98 28.28 29.55 29.95 30.27 30.90 30.13 30.53
41.93 41.93 41.87 41.94 42.11 42.29 42.38 42.76 43.09 43.35 44.16 44.41 44.61 44.78 44.90 44.99 44.95 44.40 43.00 41.15 40.94 34.21 29.01 30.92 32.66 35.64 37.15 37.59 36.60 37.01 34.95 32.91 31.03 27.35 25.67 23.65 26.90 25.32 25.41 24.66 21.90 26.95 24.19 21.34 19.85 27.02 26.50 27.30 30.53 31.45 29.52 29.12 29.74 28.49
41.49 41.35 41.19 41.09 41.33 41.66 41.78 42.19 42.27 42.61 42.70 43.58 44.00 44.28 44.29 44.91 44.53 40.57 32.98 40.23 40.76 39.43 30.67 25.47 34.92 33.84 34.89 35.69 34.84 34.50 34.49 32.91 31.94 28.18 26.94 28.21 30.11 26.07 21.45 19.35 26.02 28.42 29.85 29.81 26.24 29.94 29.38 30.32 30.80 31.42 29.50 29.03 26.68 22.79
40.35 40.33 40.41 40.59 40.79 41.18 41.37 41.59 41.82 42.07 42.23 42.81 43.51 43.75 43.83 43.97 42.45 34.06 33.12 37.90 41.59 39.46 31.14 26.32 25.82 30.40 31.61 32.91 32.87 32.57 34.20 31.74 31.37 29.08 27.41 27.36 27.54 27.47 23.16 18.60 26.43 28.99 29.86 30.15 31.05 29.95 27.25 29.04 27.32 29.23 24.89 22.26 19.23 17.17
39.00 39.11 39.32 39.53 39.82 40.13 40.56 41.04 41.33 41.54 41.74 41.91 42.32 42.88 43.33 43.33 42.17 37.15 40.10 40.32 41.20 35.17 31.80 25.06 24.08 24.53 29.81 25.64 25.61 30.44 27.75 28.98 29.41 27.40 28.55 26.09 27.34 26.69 20.72 25.08 27.71 28.80 29.32 29.57 29.73 29.77 28.03 25.85 23.72 18.71 18.30 15.69 13.36 13.42
37.15 37.51 37.97 38.56 39.08 39.27 39.53 39.99 40.34 40.65 40.89 41.24 41.64 42.02 40.58 37.77 32.80 35.03 41.97 41.51 40.51 35.05 27.19 26.33 22.07 20.34 26.55 26.53 27.77 26.53 28.15 23.31 28.64 24.67 24.95 26.10 23.28 20.23 24.10 25.74 26.79 27.86 26.97 27.20 25.58 17.95 16.81 17.45 19.02 16.01 13.51 11.33 11.07 11.80
36.60 36.65 37.22 37.89 38.32 38.50 38.71 38.92 39.13 39.31 39.74 40.27 38.78 32.57 30.34 33.95 40.92 40.44 36.57 31.79 31.06 30.95 30.34 25.82 29.62 23.67 25.42 24.05 22.99 24.23 25.14 22.50 19.54 23.13 26.72 22.36 21.37 26.91 27.88 27.84 25.64 19.41 17.52 17.14 15.83 14.89 11.51 11.68 13.01 12.14 9.54 9.52 8.52 7.69
36.36 36.43 36.87 36.91 36.99 37.29 37.47 37.66 38.14 38.51 38.55 34.81 31.41 31.02 35.76 40.00 35.78 31.82 27.90 26.78 27.82 24.26 27.06 28.05 27.62 22.22 25.59 21.01 21.81 24.58 21.96 22.49 16.59 20.75 19.71 18.88 18.41 24.12 26.90 21.22 13.47 12.68 11.55 8.34 9.27 8.90 7.68 7.48 9.37 7.84 6.72 5.54 4.50 3.19
35.67 36.02 36.25 36.41 36.63 36.62 36.66 37.05 37.21 36.28 35.16 34.64 34.38 34.97 34.25 31.26 29.12 24.56 23.13 25.01 23.56 22.14 24.79 23.51 24.99 27.27 23.66 26.69 22.81 22.55 19.14 19.75 13.87 19.12 17.53 14.58 21.04 17.27 13.32 9.11 6.75 6.72 5.81 2.58 3.69 3.34 3.34 4.00 2.18 1.22 0.64 0.56 0.12 -0.12
35.07 35.27 35.45 35.83 36.04 36.22 36.62 36.40 36.95 36.99 36.97 33.80 31.10 28.41 26.99 26.60 19.83 17.66 15.16 19.09 19.90 20.39 21.01 22.04 20.97 25.42 24.18 25.12 22.70 21.32 16.81 15.07 17.05 14.69 13.18 18.16 18.31 7.19 4.35 1.82 -1.01 -0.48 -0.66 -0.93 -1.67 -1.37 -1.85 -2.03 -2.38 -3.64 -3.51 -2.75 -3.31 -4.23
33.74 34.41 34.78 35.16 35.76 35.93 36.08 36.55 36.56 35.84 32.38 27.17 24.15 19.26 20.20 18.76 20.23 21.49 21.97 24.07 24.77 24.62 21.48 23.97 21.91 21.45 24.03 20.91 21.79 16.41 17.41 14.58 11.43 9.72 11.83 20.37 16.21 2.49 0.55 -0.31 -3.64 -4.93 -4.99 -3.81 -4.99 -5.23 -5.56 -5.63 -5.26 -5.22 -5.84 -5.79 -6.79 -7.98
33.80 34.24 34.51 34.56 35.43 35.58 36.26 36.35 36.24 34.42 30.84 24.73 24.27 16.65 19.14 20.28 16.76 13.30 10.03 16.89 20.13 25.20 22.25 20.20 20.48 21.50 19.90 18.58 19.60 16.77 10.53 9.43 11.57 12.43 19.15 13.28 0.40 -2.80 -4.13 -4.39 -5.73 -6.80 -7.43 -7.56 -7.48 -8.56 -7.48 -7.30 -7.17 -7.69 -7.30 -8.90 -8.89 -10.30
34.26 34.84 33.24 35.10 35.01 35.57 35.92 35.53 33.57 32.47 29.23 25.46 22.04 16.48 12.55 17.39 15.62 11.11 10.66 16.24 13.73 21.76 23.12 22.98 18.51 16.97 16.04 17.68 14.80 12.64 10.28 8.16 14.97 17.42 7.05 -0.93 -4.45 -3.02 -4.93 -6.27 -7.80 -8.36 -8.96 -8.43 -8.64 -9.43 -8.62 -10.48 -10.86 -9.63 -12.39 -12.48 -11.45 -10.29
30.88 27.63 31.92 33.96 33.92 34.22 34.15 32.17 29.95 21.37 18.97 15.96 12.91 9.74 13.20 14.21 14.56 15.32 14.20 14.48 15.42 20.34 19.00 18.99 14.68 13.55 17.98 13.77 12.56 16.50 13.95 18.54 10.21 2.16 1.01 -0.80 -4.16 -6.74 -8.83 -9.38 -11.18 -11.96 -11.39 -12.12 -12.36 -12.88 -11.93 -10.96 -15.52 -14.72 -12.36 -5.05 -7.72 -5.04
25.97 28.70 32.84 34.14 30.22 25.57 18.67 18.35 18.64 16.46 9.03 6.61 10.48 6.60 5.30 3.77 6.56 7.91 9.08 13.32 16.50 17.45 17.45 17.10 17.77 13.41 12.88 10.78 12.49 17.06 5.94 -4.05 -2.00 -1.24 -2.50 -6.23 -8.71 -10.48 -8.90 -7.95 -12.74 -12.99 -11.73 -14.08 -14.94 -14.82 -15.20 -15.20 -9.90 -5.33 -8.07 -4.25 -5.28 -3.73
27.83 28.53 32.50 32.00 28.29 19.98 15.12 11.49 12.40 9.15 1.92 1.47 2.79 3.18 2.72 2.26 3.43 3.47 5.64 10.03 10.96 12.10 16.80 17.05 14.54 13.25 13.73 14.23 10.22 1.81 -1.27 -0.63 -3.30 -4.83 -6.73 -9.73 -8.53 -12.62 -13.89 -13.58 -13.06 -12.12 -13.30 -11.20 -9.15 -6.84 -7.25 -9.89 -8.15 -5.98 -4.13 -3.16 -3.27 -1.30
27.83 27.37 27.51 25.89 24.59 16.64 9.96 7.12 10.54 6.69 3.37 0.39 1.19 0.81 0.33 0.09 -0.17 1.81 4.93 7.19 10.65 13.18 13.40 12.95 13.96 5.19 4.50 -1.89 -4.84 -1.33 -1.70 -3.23 -4.31 -5.66 -6.78 -7.88 -8.36 -13.71 -10.11 -8.69 -6.37 -8.68 -8.18 -9.08 -8.56 -8.51 -5.23 -4.73 -4.01 -4.15 -4.28 -3.67 -4.04 -3.89
21.56 22.33 23.49 18.39 12.37 9.55 5.69 4.05 1.31 0.80 -0.04 -0.81 -0.47 0.44 -1.05 -0.34 -1.39 -0.03 2.73 2.24 8.39 9.21 8.18 -4.00 -5.62 -10.85 -13.59 -12.78 -12.17 -6.32 -6.07 -2.72 -3.59 -1.58 -2.43 -6.96 -8.03 -6.42 -9.25 -9.10 -9.40 -7.48 -6.29 -6.67 -6.38 -6.04 -6.35 -6.46 -5.56 -4.54 -4.58 -4.48 -4.05 -3.41
15.56 20.16 16.88 17.35 8.00 3.49 2.29 3.09 1.91 0.98 -0.82 -3.75 -1.51 -1.24 -2.78 -2.31 -3.86 -4.48 -4.52 2.62 -0.60 -8.44 -9.72 -8.29 -9.18 -10.15 -9.97 -10.11 -13.00 -14.40 -14.35 -11.22 -11.16 -9.96 -8.84 -7.98 -9.84 -8.67 -8.25 -6.91 -7.10 -7.12 -7.01 -6.57 -6.71 -6.93 -6.20 -5.24 -4.61 -4.56 -5.07 -5.35 -4.49 -4.35
12.25 13.53 9.21 7.64 4.21 1.62 -4.15 2.58 -2.00 -3.00 -2.69 -3.91 -3.44 -2.26 -5.25 -5.44 -6.43 -3.92 -1.48 -7.20 -10.18 -15.04 -17.62 -16.37 -17.64 -19.10 -14.22 -18.27 -17.76 -18.44 -18.92 -12.78 -10.52 -9.77 -9.30 -7.60 -7.37 -7.22 -6.45 -7.11 -6.11 -7.47 -7.52 -6.05 -5.61 -5.71 -5.80 -4.95 -4.72 -5.04 -4.68 -4.93 -5.60 -5.78
4.93 -4.84 -6.16 -5.35 -2.76 -5.83 -4.24 -5.54 -2.11 -3.80 -3.64 -3.72 -2.22 -4.76 -6.96 -8.10 -9.13 -2.80 -2.11 -7.48 -11.85 -13.20 -13.45 -16.07 -14.10 -12.46 -13.49 -14.01 -11.77 -12.76 -15.12 -15.22 -11.96 -12.59 -11.50 -8.64 -7.46 -7.72 -6.32 -5.66 -5.77 -5.68 -5.34 -5.35 -5.66 -5.48 -5.40 -5.66 -5.80 -5.62 -5.91 -6.70 -6.61 -7.09
1.21 -15.31 -11.86 -14.58 -11.01 -8.13 -8.79 -8.28 -7.04 -4.29 -7.50 -10.99 -7.54 -8.09 -11.20 -16.34 -5.23 -5.64 -7.54 -8.08 -10.52 -11.72 -13.79 -18.15 -16.03 -13.61 -11.34 -12.94 -13.80 -13.87 -24.16 -13.63 -8.97 -8.57 -9.49 -9.20 -6.09 -6.60 -6.62 -5.37 -4.74 -4.24 -3.80 -6.50 -6.58 -6.22 -6.23 -6.53 -6.62 -7.21 -7.89 -8.27 -8.90 -9.13
-18.78 -24.09 -18.94 -20.20 -15.18 -13.16 -15.51 -9.42 -12.26 -12.22 -11.00 -8.99 -13.28 -16.87 -17.92 -10.69 -8.05 -10.61 -10.64 -10.90 -11.57 -13.38 -15.20 -15.49 -13.22 -13.26 -13.10 -11.16 -10.10 -10.91 -10.24 -15.00 -11.61 -7.57 -6.32 -7.77 -7.35 -4.53 -4.56 -5.37 -5.80 -4.60 -3.30 -4.31 -5.34 -7.06 -7.23 -7.17 -8.19 -9.21 -9.18 -8.58 -8.72 -9.75
-19.49 -21.36 -21.34 -23.37 -21.25 -19.49 -17.23 -17.77 -18.23 -13.68 -13.66 -14.05 -16.15 -14.79 -13.90 -14.94 -13.95 -11.61 -10.13 -11.72 -11.88 -12.45 -14.12 -12.05 -10.58 -9.31 -7.44 -9.68 -9.36 -9.53 -9.67 -10.68 -8.86 -5.18 -4.07 -3.73 -3.24 -2.88 -3.64 -5.50 -6.31 -3.83 -3.72 -5.24 -6.10 -7.35 -8.32 -8.73 -9.21 -9.31 -9.58 -8.70 -8.48 -8.91
-24.35 -26.67 -25.41 -22.77 -22.96 -24.97 -23.20 -22.43 -19.25 -19.69 -18.43 -21.11 -21.40 -17.06 -16.23 -15.37 -15.17 -11.73 -11.16 -10.73 -14.33 -15.65 -15.85 -15.49 -12.78 -10.30 -8.73 -7.47 -6.18 -6.05 -5.91 -5.63 -5.17 -5.13 -4.40 -4.71 -4.78 -4.62 -5.40 -4.65 -4.14 0.86 -4.43 -5.40 -5.85 -6.94 -8.79 -9.39 -9.69 -9.22 -9.49 -10.02 -9.28 -7.89
-23.63 -26.46 -28.17 -25.78 -25.04 -20.42 -24.34 -22.43 -21.91 -23.53 -25.60 -23.91 -17.82 -14.10 -15.12 -13.09 -14.13 -13.40 -11.12 -13.48 -13.40 -12.77 -12.82 -12.14 -11.24 -10.24 -6.90 -4.63 -4.00 -3.30 -3.47 -4.31 -5.04 -6.41 -6.60 -5.83 -5.53 -5.51 -8.35 -8.35 -8.30 -8.05 -7.56 -7.68 -4.14 -1.73 -5.26 -7.76 -8.15 -8.58 -8.52 -8.86 -8.32 -9.14
-25.29 -31.54 -19.26 -17.45 -16.62 -18.89 -24.20 -29.75 -26.21 -30.93 -30.60 -30.31 -30.66 -22.57 -17.02 -12.66 -11.94 -15.50 -16.20 -13.82 -11.23 -12.05 -11.98 -9.60 -7.37 -7.61 -5.68 -4.79 -4.50 -4.05 -3.89 -4.87 -5.54 -6.77 -9.81 -10.41 -9.52 -11.26 -13.74 -11.85 -9.35 -8.24 -8.39 -9.98 -9.92 -9.23 -5.60 -7.11 -10.37 -15.54 -13.83 -13.22 -12.97 -13.13
-32.64 -30.63 -23.82 -21.17 -19.22 -24.08 -29.66 -35.31 -36.39 -37.35 -35.62 -32.47 -36.97 -28.26 -19.69 -20.07 -16.27 -14.55 -15.52 -15.83 -16.41 -14.17 -10.77 -8.66 -8.48 -7.26 -6.23 -5.70 -5.94 -6.02 -5.11 -10.01 -20.03 -19.30 -17.99 -15.36 -13.11 -11.55 -9.57 -8.18 -7.60 -9.04 -13.32 -14.84 -15.17 -15.77 -14.38 -15.25 -15.73 -16.67 -16.84 -16.77 -16.55 -16.02
-23.82 -28.25 -26.80 -23.69 -24.86 -32.01 -35.54 -33.01 -32.02 -27.92 -27.25 -24.09 -22.10 -27.00 -20.28 -17.42 -9.82 -7.72 -10.35 -11.38 -9.30 -9.54 -8.37 -7.91 -7.36 -5.71 -7.77 -8.26 -9.40 -10.66 -12.98 -16.02 -16.69 -14.07 -14.66 -9.44 -7.86 -6.92 -6.68 -7.40 -10.61 -14.67 -15.81 -14.73 -15.11 -15.84 -16.70 -18.50 -16.97 -16.14 -15.31 -15.78 -15.65 -16.05
-25.08 -25.73 -23.77 -22.09 -17.94 -17.86 -23.90 -25.85 -24.01 -25.55 -26.76 -21.48 -21.42 -25.59 -23.35 -20.97 -13.55 -10.23 -9.98 -13.67 -13.76 -13.58 -12.07 -11.11 -12.03 -12.47 -13.12 -13.81 -13.29 -12.01 -9.96 -8.72 -7.35 -2.09 -1.10 -0.47 -1.16 -0.89 -2.11 -4.44 -7.75 -11.09 -12.70 -12.11 -11.96 -12.64 -15.06 -16.06 -16.23 -16.25 -16.58 -16.46 -16.21 -15.74

GFSWCAN_sfc_wetblb_024.txt.gz
Wetbulb
44.48 44.82 45.23 45.26 45.43 45.53 45.61 45.67 45.69 46.01 46.36 46.48 46.03 45.76 45.82 45.94 46.00 43.65 40.28 41.79 36.29 30.15 31.34 32.56 33.13 28.64 28.42 27.68 21.92 20.96 22.05 21.73 21.41 14.87 13.87 18.30 11.79 17.94 14.87 18.72 16.84 13.06 7.04 5.20 5.35 3.34 7.66 22.74 21.52 16.53 21.58 25.56 24.96 24.79
43.34 44.24 44.49 44.50 44.95 45.22 45.49 45.49 45.42 45.66 45.77 46.22 45.98 46.07 46.09 45.93 46.11 45.67 39.24 42.36 42.37 34.82 31.52 36.58 36.90 36.71 34.71 33.86 29.39 23.77 25.21 20.40 25.38 20.01 18.76 19.12 10.69 15.25 13.12 4.42 21.80 10.86 16.90 10.03 14.32 12.42 23.88 24.73 24.07 26.49 27.05 23.32 24.90 25.09
42.53 43.24 43.61 43.26 43.69 43.89 44.51 44.84 45.11 45.10 45.35 45.46 45.65 45.75 45.78 46.02 46.06 44.86 40.58 40.68 38.28 31.95 32.33 32.07 30.49 36.47 38.37 36.82 37.38 25.59 27.01 30.02 27.93 30.05 24.80 21.33 13.78 20.61 8.40 12.61 14.76 19.65 22.78 18.36 16.23 21.44 23.29 26.00 27.72 27.61 27.67 26.35 26.90 26.38
42.56 42.60 42.87 43.05 42.98 43.47 43.71 43.73 43.83 44.09 44.84 45.14 45.40 45.43 45.57 45.64 45.51 45.13 40.47 40.98 37.62 34.12 27.98 27.47 36.05 33.48 38.77 37.63 35.99 35.51 33.46 32.44 31.38 30.68 25.65 22.89 15.80 24.86 19.69 20.92 18.60 21.70 20.83 18.45 19.32 23.41 25.07 26.24 26.94 27.81 28.08 28.24 26.80 26.55
41.99 42.26 42.68 42.76 42.84 42.62 42.58 42.73 42.84 43.24 43.60 44.00 44.52 44.87 44.89 45.23 45.31 43.96 42.58 41.84 40.96 34.18 27.82 25.36 28.94 33.32 36.24 36.83 35.17 34.76 32.64 29.87 30.16 26.61 25.51 21.57 22.71 23.84 24.45 23.51 21.05 25.09 22.60 19.62 17.91 24.56 24.48 25.22 26.74 27.16 26.35 25.92 25.62 24.89
41.36 41.62 41.87 41.89 42.08 42.09 42.06 42.11 42.32 42.34 42.61 42.98 43.28 44.05 44.46 44.65 44.72 40.99 33.29 40.64 41.09 39.82 30.94 25.06 32.16 27.43 32.67 34.90 34.00 33.11 32.99 30.70 29.55 28.26 25.17 26.31 27.66 24.73 20.97 18.86 24.49 26.66 27.30 26.93 24.98 28.74 28.00 27.74 26.86 27.15 25.94 25.59 25.63 23.53
40.59 40.90 41.26 41.50 41.55 41.36 41.27 41.43 41.69 41.84 42.02 42.33 42.86 42.91 43.97 44.33 41.98 35.09 32.26 37.11 42.45 40.29 30.71 25.88 25.29 27.65 30.57 30.22 28.20 30.03 31.40 31.70 29.84 28.20 26.60 26.63 26.52 27.03 23.16 18.56 24.76 25.55 26.55 27.57 29.06 28.26 25.20 26.68 25.82 25.15 24.20 21.20 18.63 16.47
40.09 40.15 40.35 40.35 40.31 40.39 40.48 40.56 41.02 41.39 41.63 41.76 42.07 42.25 42.78 43.49 42.44 37.34 39.50 40.49 41.65 34.67 31.20 24.80 23.98 19.84 26.99 26.53 25.69 30.30 28.05 30.11 29.73 26.51 24.95 24.15 25.70 25.72 19.85 24.28 25.88 26.96 27.74 27.78 27.93 27.04 25.40 22.59 20.75 18.28 17.62 15.22 11.23 12.69
39.17 38.96 38.90 39.02 39.17 39.39 39.58 39.71 40.07 40.56 40.89 41.14 41.43 41.72 39.19 37.17 33.34 35.02 42.25 41.99 39.85 34.54 26.91 25.74 20.22 15.80 25.34 24.28 26.07 26.95 27.85 22.06 26.34 23.02 23.16 23.13 20.28 18.02 21.43 23.89 24.94 26.80 26.00 25.98 19.74 15.40 14.21 15.12 16.06 14.43 12.50 10.05 9.57 11.44
37.51 36.92 36.84 37.00 37.50 38.10 38.68 39.13 39.30 39.81 40.05 40.22 38.14 32.24 29.67 33.91 41.33 40.75 36.27 32.35 31.10 31.17 30.07 25.10 21.69 19.99 24.09 21.63 22.08 21.76 23.28 19.69 15.18 20.10 23.74 20.02 18.69 24.76 25.89 26.33 25.94 20.53 17.88 17.81 12.27 10.59 6.44 7.15 11.26 10.62 7.91 8.85 8.94 8.43
36.73 36.69 36.58 36.50 36.86 37.49 38.00 38.50 38.77 38.86 38.16 34.61 30.89 29.97 33.32 39.55 34.95 31.71 27.11 26.15 27.12 24.06 26.97 25.07 24.86 17.04 22.04 17.28 19.67 24.27 18.76 18.13 14.18 12.00 15.26 8.79 10.08 22.02 25.59 25.53 14.58 14.59 12.66 8.71 9.01 8.66 7.45 6.34 7.65 6.56 5.45 4.62 3.88 2.09
36.11 36.18 36.25 36.41 36.87 37.07 37.07 37.36 37.55 35.37 34.10 34.14 33.83 34.41 33.07 31.07 28.07 23.96 22.10 21.53 23.11 19.95 21.77 19.55 22.04 26.65 22.87 25.34 22.12 21.72 18.83 20.17 13.78 12.68 14.15 5.81 15.34 19.69 11.68 8.15 6.77 7.02 4.72 1.47 2.77 3.33 4.33 4.77 2.11 0.73 -0.79 -1.48 -2.28 -1.73
35.38 35.49 35.80 36.09 36.40 36.86 37.02 36.96 37.10 36.82 36.55 33.71 30.36 27.29 25.69 25.19 19.33 17.86 14.84 12.85 9.46 16.58 18.98 15.84 19.72 24.19 24.08 25.27 22.49 20.70 16.18 15.07 17.23 14.29 7.51 9.34 14.26 5.51 1.54 -0.24 -2.59 -2.23 -2.00 -1.47 -2.13 -2.70 -2.90 -3.31 -4.57 -6.87 -7.79 -7.45 -8.46 -9.62
33.09 34.04 34.63 35.07 35.55 35.93 36.23 36.74 36.56 35.24 31.75 25.54 22.15 16.76 18.89 16.71 18.28 18.27 12.74 12.30 16.84 17.78 19.16 22.43 20.05 18.08 21.96 20.30 22.09 16.11 17.69 13.03 10.00 5.72 3.26 9.36 10.74 2.36 -2.66 -4.53 -6.36 -7.60 -4.44 -3.53 -6.41 -7.83 -7.70 -7.87 -8.27 -10.17 -11.55 -12.37 -13.52 -14.06
33.04 33.56 34.09 34.01 34.93 35.47 35.75 35.93 36.38 33.72 29.08 22.22 22.62 13.91 16.77 13.53 9.55 4.13 5.38 12.35 13.94 19.10 22.83 20.78 20.54 22.48 18.74 18.52 20.67 15.96 10.08 8.71 6.25 4.44 9.34 5.91 -2.15 -4.27 -6.48 -8.79 -9.41 -10.43 -10.95 -12.11 -10.70 -11.26 -9.88 -11.75 -13.48 -15.33 -16.52 -17.66 -18.32 -17.96
31.99 32.37 30.73 34.35 35.02 35.31 35.44 34.99 32.60 31.57 28.50 23.18 21.91 16.78 7.11 8.75 7.83 5.37 5.45 9.83 13.56 19.84 20.58 22.40 18.91 16.75 16.06 17.78 13.86 11.37 9.01 2.62 6.25 8.66 -0.21 -4.20 -9.80 -10.54 -10.58 -11.28 -11.92 -11.67 -12.70 -15.76 -16.93 -15.90 -13.40 -16.13 -17.76 -19.31 -23.11 -22.23 -20.55 -20.79
30.43 27.49 31.59 33.30 33.85 34.69 34.21 31.36 29.24 25.55 22.82 19.34 11.31 1.82 8.64 15.76 15.94 10.59 8.23 13.40 15.26 18.09 14.96 17.56 14.48 13.02 17.87 14.36 12.75 12.62 5.73 5.67 -2.71 -4.26 -3.16 -6.68 -10.02 -12.76 -14.49 -14.99 -18.18 -19.82 -20.39 -20.20 -21.34 -21.52 -21.21 -21.96 -25.59 -25.21 -23.06 -19.50 -20.60 -16.74
20.94 27.46 33.47 33.24 30.44 25.80 18.54 17.96 19.99 17.82 10.47 6.31 9.05 2.76 2.49 2.62 4.29 7.45 7.27 13.18 14.61 15.78 16.86 16.78 17.13 12.16 11.28 9.36 8.92 6.40 -0.98 -5.99 -2.72 -3.64 -7.13 -10.35 -14.59 -14.44 -13.74 -16.49 -20.50 -20.39 -20.31 -21.54 -23.49 -24.61 -25.19 -25.59 -24.03 -19.81 -20.90 -17.15 -17.92 -13.97
26.94 27.82 29.87 30.33 27.86 19.97 15.44 11.46 11.34 9.33 1.98 0.71 2.02 2.90 -0.09 -0.89 2.63 3.64 4.38 8.99 12.13 13.07 13.20 16.51 14.89 13.06 13.73 8.12 5.11 0.47 -0.47 -2.71 -6.05 -5.95 -9.99 -11.98 -13.84 -15.11 -16.70 -18.62 -18.42 -18.85 -14.22 -16.54 -22.44 -21.26 -20.93 -21.41 -20.10 -18.03 -16.00 -14.95 -14.82 -12.38
27.29 26.97 26.94 25.67 23.76 17.70 10.29 5.21 10.79 7.54 0.28 0.68 1.89 -0.52 1.14 -0.97 -3.46 -2.62 3.45 7.19 9.64 12.11 12.66 10.95 6.11 -1.80 -2.58 -6.58 -8.32 -4.97 -3.56 -3.29 -4.41 -7.08 -9.85 -10.28 -12.61 -17.58 -17.06 -17.95 -15.10 -13.84 -14.94 -20.68 -23.35 -16.97 -19.30 -17.83 -17.04 -16.59 -17.16 -15.01 -13.54 -8.09
21.01 21.40 22.98 17.00 11.73 8.56 5.66 3.67 -1.71 -0.52 -0.91 -3.42 -2.66 0.07 -2.37 -0.98 -4.72 -0.07 2.64 1.43 8.63 2.93 2.82 -6.64 -10.58 -11.34 -11.85 -12.47 -11.11 -5.80 -8.26 -3.49 -6.59 -6.98 -7.31 -9.99 -10.13 -12.78 -18.70 -19.16 -19.72 -19.86 -19.02 -20.12 -19.57 -18.74 -17.27 -19.74 -18.16 -17.07 -16.62 -12.52 -8.17 -4.88
15.80 21.00 16.34 16.56 7.99 3.54 0.63 2.01 0.10 -1.81 -4.18 -9.28 -6.80 -6.90 -11.38 -10.27 -10.98 -10.07 -4.32 3.20 -4.55 -13.42 -13.10 -10.89 -10.44 -11.86 -12.54 -16.33 -16.81 -16.29 -15.39 -12.11 -9.83 -7.22 -7.84 -8.60 -11.66 -15.57 -19.16 -16.58 -18.79 -21.13 -21.60 -21.21 -20.95 -21.41 -20.39 -18.00 -15.97 -14.04 -9.95 -7.97 -5.46 -5.05
13.09 14.76 8.59 6.98 5.01 0.49 -5.92 -0.20 -6.03 -3.80 -5.39 -9.34 -10.10 -9.05 -10.85 -14.75 -12.65 -4.79 -3.42 -10.91 -15.22 -16.45 -21.26 -19.38 -18.20 -17.81 -15.78 -16.93 -15.46 -15.28 -15.21 -12.37 -13.28 -13.01 -16.12 -15.98 -21.10 -20.03 -18.32 -21.51 -20.99 -21.35 -21.48 -20.12 -18.98 -18.47 -16.04 -9.85 -9.23 -6.92 -6.18 -5.60 -6.18 -6.03
5.71 -4.39 -5.35 -5.69 -3.36 -8.84 -7.04 -9.83 -2.79 -7.67 -8.11 -10.52 -5.35 -8.35 -13.46 -12.06 -9.10 -2.98 -6.36 -15.08 -19.51 -15.51 -17.00 -18.13 -14.91 -13.47 -14.98 -14.49 -13.98 -14.33 -13.63 -13.74 -18.60 -18.83 -20.35 -22.49 -22.06 -22.44 -21.90 -21.37 -21.37 -21.12 -19.29 -17.80 -13.83 -12.55 -10.76 -8.94 -5.49 -6.89 -6.97 -9.05 -10.08 -10.09
-0.41 -16.00 -13.38 -17.88 -10.53 -9.70 -7.31 -6.31 -5.27 -4.43 -10.68 -11.97 -7.49 -7.05 -14.12 -16.42 -6.25 -5.19 -8.58 -12.43 -10.34 -11.58 -13.59 -14.99 -12.59 -10.88 -10.13 -11.97 -11.81 -15.46 -23.40 -21.26 -18.25 -23.22 -23.79 -24.45 -22.67 -22.04 -20.21 -19.57 -17.53 -13.13 -9.06 -10.70 -10.55 -8.95 -8.39 -8.14 -9.06 -9.01 -10.04 -11.64 -11.44 -11.91
-20.18 -23.85 -25.76 -28.32 -21.18 -17.61 -14.96 -10.64 -13.52 -14.06 -11.16 -10.53 -14.97 -15.53 -18.05 -12.27 -10.24 -17.69 -17.32 -16.97 -17.18 -16.13 -16.42 -17.83 -18.57 -18.66 -18.47 -18.27 -19.58 -21.60 -22.92 -28.14 -25.67 -21.41 -21.36 -22.57 -20.83 -18.73 -16.06 -13.17 -9.18 -8.67 -5.82 -7.78 -8.44 -10.29 -10.48 -9.10 -10.68 -10.84 -11.25 -11.10 -9.15 -11.29
-20.45 -28.13 -27.29 -27.61 -25.50 -24.52 -24.96 -23.39 -17.99 -14.56 -15.28 -17.22 -18.73 -16.26 -16.16 -17.47 -19.49 -18.92 -17.33 -17.75 -20.92 -24.94 -23.02 -22.69 -23.45 -22.02 -21.99 -23.15 -22.04 -23.57 -23.89 -23.92 -20.55 -17.80 -17.71 -16.08 -12.71 -10.97 -10.30 -10.55 -9.57 -8.44 -9.02 -9.13 -9.33 -9.82 -10.60 -10.38 -10.28 -10.58 -11.24 -11.17 -11.68 -11.48
-28.71 -30.25 -30.58 -28.74 -29.84 -31.38 -31.65 -29.66 -27.14 -26.59 -24.47 -23.58 -27.28 -23.48 -21.35 -23.07 -23.79 -23.48 -20.79 -18.16 -24.02 -24.85 -24.61 -25.25 -24.91 -23.15 -21.70 -18.25 -18.20 -17.15 -16.60 -14.59 -12.16 -12.04 -12.48 -10.27 -8.89 -9.58 -10.94 -10.93 -9.33 1.26 -7.81 -9.28 -8.95 -9.23 -10.32 -10.90 -11.80 -11.97 -11.65 -10.71 -9.42 -9.73
-32.01 -30.66 -30.89 -29.28 -31.38 -28.52 -32.01 -31.70 -31.50 -30.22 -26.63 -28.28 -25.29 -20.35 -23.25 -22.11 -24.20 -22.64 -18.32 -17.12 -18.90 -19.59 -21.27 -21.60 -19.52 -18.82 -12.05 -7.34 -5.85 -6.35 -6.35 -7.85 -9.00 -9.24 -10.01 -9.63 -9.07 -9.93 -13.26 -14.58 -14.87 -14.71 -13.85 -13.82 -5.03 -1.77 -7.54 -8.77 -9.02 -9.29 -9.11 -9.03 -8.81 -13.25
-26.54 -29.10 -21.21 -17.94 -18.06 -22.77 -29.07 -34.48 -34.75 -37.89 -31.48 -29.50 -29.25 -23.28 -19.07 -15.27 -13.66 -13.75 -15.36 -16.18 -15.24 -16.99 -17.14 -14.66 -11.04 -9.03 -7.26 -6.53 -7.45 -6.85 -6.71 -7.64 -7.60 -8.82 -10.79 -12.30 -13.52 -17.70 -19.84 -17.61 -15.94 -13.41 -11.48 -12.37 -10.99 -11.11 -6.51 -11.78 -13.99 -19.47 -18.13 -17.48 -18.89 -18.01
-35.79 -37.60 -31.21 -27.33 -24.91 -28.57 -32.74 -35.95 -33.26 -33.60 -32.29 -29.36 -31.25 -26.33 -20.16 -20.08 -16.05 -12.76 -12.64 -13.45 -16.46 -14.90 -10.97 -8.36 -8.30 -8.12 -7.83 -7.30 -8.79 -7.92 -8.11 -10.44 -12.53 -12.98 -14.02 -18.07 -22.04 -20.40 -16.97 -13.31 -11.84 -14.18 -15.56 -15.75 -15.80 -18.54 -17.98 -20.83 -23.31 -21.44 -21.72 -20.06 -19.24 -17.99
-24.26 -26.76 -27.42 -26.04 -29.29 -38.96 -45.05 -42.67 -41.91 -34.82 -28.05 -22.45 -22.32 -23.91 -19.76 -18.40 -14.28 -12.36 -10.79 -11.29 -10.02 -10.22 -8.67 -8.53 -8.83 -10.59 -10.03 -9.61 -9.08 -9.42 -9.08 -10.30 -10.57 -9.41 -12.77 -12.90 -12.30 -9.26 -7.37 -6.34 -7.28 -9.62 -13.04 -13.57 -14.37 -15.73 -17.46 -19.19 -18.05 -18.40 -18.07 -19.00 -19.17 -19.85
-28.24 -29.28 -26.88 -22.97 -21.01 -21.74 -23.86 -24.94 -24.96 -27.17 -26.25 -22.00 -23.40 -24.94 -23.79 -20.34 -16.64 -11.84 -6.73 -10.85 -13.62 -14.64 -14.09 -13.24 -12.17 -11.57 -11.26 -10.75 -9.95 -9.19 -8.45 -9.89 -8.94 -1.38 -1.46 -0.43 -1.68 -1.08 -2.20 -2.90 -3.59 -7.00 -10.09 -11.66 -12.80 -12.99 -15.04 -16.95 -17.58 -18.12 -18.97 -19.10 -18.43 -18.18

GFSWCAN_sfc_wetblb_030.txt.gz
Wetbulb
44.10 44.73 44.75 45.22 45.64 45.33 45.37 46.30 46.59 46.35 46.42 46.43 46.23 46.53 46.28 45.96 45.93 41.94 37.91 38.81 33.59 27.18 29.53 31.28 31.72 28.75 27.98 27.57 23.59 23.02 25.40 25.15 23.32 19.51 15.38 17.58 10.83 16.61 12.89 15.84 14.24 12.39 9.99 9.10 8.72 8.26 4.79 21.99 20.77 16.36 21.71 23.03 23.35 22.34
43.63 44.10 43.97 44.35 45.07 45.53 45.57 45.34 45.83 46.09 46.14 46.22 46.31 46.36 46.24 46.12 46.11 44.63 37.95 39.04 37.92 29.11 28.37 34.60 34.64 35.22 32.98 32.12 26.50 21.05 25.13 20.84 24.64 17.92 14.35 16.37 8.01 9.10 10.64 7.35 20.11 12.47 16.30 9.85 13.57 12.31 22.45 23.24 23.95 26.24 25.40 22.75 24.04 23.55
42.97 43.30 43.15 43.76 44.49 44.87 45.16 45.24 45.37 45.72 45.86 45.76 45.87 46.09 46.45 46.29 46.16 44.81 39.86 37.57 37.42 32.51 29.57 30.79 28.74 34.08 36.34 34.17 33.94 24.14 22.81 26.90 26.30 26.26 17.86 15.52 8.50 17.05 6.22 8.49 11.72 17.67 20.05 16.17 14.40 19.15 21.13 23.84 26.46 25.39 25.61 25.20 26.17 26.62
42.25 42.73 43.13 43.36 43.87 43.97 44.45 45.22 45.19 45.38 45.51 45.56 45.66 45.75 46.11 46.27 45.74 45.41 40.09 40.84 38.00 33.37 24.08 24.21 31.11 30.99 35.25 34.80 32.51 31.66 29.73 29.09 28.40 27.37 17.73 12.85 9.66 22.52 13.60 17.50 15.93 18.80 19.24 15.54 15.80 21.34 22.44 22.95 23.95 25.57 26.53 25.36 25.92 25.53
41.89 42.44 42.84 42.88 43.25 43.33 43.59 43.96 44.08 44.37 44.55 45.10 45.12 45.29 45.43 45.67 45.94 44.57 42.17 40.75 39.54 31.84 24.87 19.09 25.21 30.46 33.08 32.84 32.05 31.74 30.01 27.16 23.67 20.14 14.25 13.08 18.93 20.69 17.50 22.23 16.26 22.07 22.01 18.14 16.41 24.82 24.00 24.65 25.86 26.06 24.78 25.17 25.49 25.03
41.40 42.05 42.54 42.40 42.50 42.69 43.13 43.43 43.59 43.85 43.95 43.97 44.04 44.60 44.64 44.71 44.93 40.52 33.09 40.39 40.95 39.15 31.20 19.43 27.34 24.01 29.90 31.44 30.37 29.23 29.61 27.10 25.56 27.13 20.46 21.68 25.53 24.93 19.66 17.83 24.09 26.47 25.16 26.78 24.54 27.93 25.47 26.80 26.63 26.52 24.84 25.24 25.30 24.14
41.12 41.43 41.92 42.21 42.33 42.42 42.58 43.02 43.23 43.37 43.44 43.29 42.86 42.36 42.97 43.39 41.93 33.50 32.56 36.73 42.22 39.85 30.45 24.74 21.41 23.52 28.01 27.44 23.90 27.64 29.09 25.96 29.37 28.60 25.38 24.40 24.05 27.50 22.55 15.85 24.82 24.30 25.42 26.39 26.67 25.67 23.93 25.68 24.47 25.79 25.24 25.88 22.02 19.33
40.51 40.61 41.40 41.79 41.94 42.02 42.22 42.30 42.54 42.59 42.40 42.29 42.29 42.43 42.73 42.68 41.84 37.04 39.53 41.29 42.49 34.66 31.45 24.57 19.97 19.49 27.30 25.84 26.07 28.99 28.98 29.87 29.15 28.07 25.26 23.84 25.86 26.41 19.87 23.49 25.08 26.19 26.71 25.26 25.50 26.41 27.27 27.84 22.18 22.67 19.62 16.97 14.28 15.77
40.51 40.38 41.42 41.58 41.40 41.49 41.70 41.73 41.74 41.85 41.69 41.70 41.87 41.83 36.49 34.53 32.46 34.28 42.24 42.16 40.78 34.24 26.43 24.97 13.08 10.82 27.30 26.96 27.97 27.30 29.75 23.81 29.68 24.88 23.39 25.30 20.35 18.79 21.54 23.77 24.72 25.72 25.00 25.39 22.26 17.79 17.91 20.26 23.07 17.45 14.41 11.38 13.21 13.67
39.46 38.16 41.00 40.98 40.89 40.85 41.12 40.93 41.21 41.04 40.88 40.93 37.38 32.48 29.06 32.20 38.37 40.33 35.95 31.61 31.18 30.85 30.40 20.57 14.32 10.63 22.89 20.89 21.51 22.97 25.10 22.06 17.78 21.18 24.37 21.89 20.11 25.71 25.66 22.93 24.26 25.33 25.44 20.86 17.35 17.03 7.29 9.46 13.80 12.82 11.97 11.21 11.42 11.79
39.33 40.31 40.47 40.12 40.19 40.22 40.00 40.06 40.22 40.16 39.58 34.82 30.15 29.14 33.68 38.66 33.40 30.87 25.62 25.31 25.61 22.16 25.30 17.05 17.02 14.79 21.07 15.90 19.07 23.86 19.72 21.50 15.27 16.12 16.84 12.49 12.47 23.26 26.01 25.26 26.12 24.67 21.39 18.79 16.87 12.66 11.01 11.39 11.83 11.15 7.57 5.93 5.37 3.22
39.31 39.62 38.92 38.16 37.79 37.62 38.06 39.01 39.49 35.77 33.39 32.41 32.94 34.43 33.88 30.81 27.13 21.54 21.39 18.88 20.88 12.77 11.84 20.68 14.51 19.54 17.38 20.30 18.72 20.96 16.37 17.38 12.60 11.33 11.62 6.10 18.37 22.57 19.84 23.22 24.39 15.23 13.36 6.87 5.81 7.65 6.79 7.08 6.18 5.37 2.22 -0.91 -3.12 -2.85
36.26 36.65 36.88 36.88 36.88 36.89 37.26 37.94 38.60 37.95 37.93 33.16 28.56 24.23 24.63 22.75 17.30 16.35 12.66 8.37 9.73 8.28 17.33 15.45 16.82 19.98 23.51 24.22 20.56 20.30 15.99 14.42 16.24 14.55 10.26 10.51 19.09 13.96 17.41 8.92 2.02 1.93 1.92 0.41 -0.83 -0.78 -1.67 -3.53 -4.34 -5.67 -6.24 -7.49 -8.26 -9.68
35.19 35.08 35.15 35.22 35.33 36.05 37.01 37.65 38.43 36.50 31.04 24.09 20.59 16.12 17.06 14.02 11.16 14.21 5.91 8.26 14.70 12.84 14.58 14.05 19.19 16.84 20.55 20.37 21.64 15.94 18.11 15.95 12.22 10.58 4.90 17.36 11.34 13.46 4.33 -0.64 -0.31 -2.17 -2.33 -2.54 -5.11 -5.11 -5.95 -6.79 -8.87 -10.20 -11.09 -13.52 -13.10 -14.14
33.55 33.84 33.93 33.27 34.25 34.63 35.25 36.13 37.82 34.25 27.59 20.18 20.24 13.38 16.04 4.82 -0.80 -3.62 -3.04 6.07 10.47 11.18 20.47 16.71 14.53 20.96 16.34 17.99 20.13 16.86 10.76 9.80 10.45 5.52 7.31 4.90 1.52 1.86 -2.18 -4.62 -4.13 -5.36 -7.03 -9.75 -11.83 -10.32 -9.19 -10.15 -11.81 -17.18 -22.24 -22.36 -20.95 -20.46
31.99 31.92 28.88 33.20 33.56 34.08 34.46 35.23 33.65 31.58 26.75 22.50 16.22 10.27 -0.37 2.53 -0.90 -2.30 -3.09 4.28 9.21 17.44 19.48 19.94 18.48 18.40 16.40 17.49 14.36 12.24 8.55 5.13 7.13 3.41 -4.31 -1.00 -0.14 -0.96 -2.86 -4.12 -6.27 -6.20 -7.96 -11.32 -12.76 -13.21 -12.46 -14.00 -14.46 -18.24 -26.59 -26.41 -24.60 -23.49
29.09 16.60 29.93 31.65 32.54 32.39 32.82 29.67 28.41 23.92 21.03 19.55 8.91 -13.41 -4.29 -0.62 5.39 1.19 3.42 8.84 15.35 19.28 16.18 17.15 14.76 13.09 18.80 14.77 12.59 8.87 4.13 1.42 -2.70 -1.40 -4.26 -3.40 -4.17 -5.36 -7.26 -7.56 -8.02 -9.47 -12.40 -11.14 -14.01 -15.10 -16.86 -20.27 -27.40 -23.25 -18.05 -20.06 -25.24 -25.26
17.88 22.20 29.55 31.48 27.29 25.05 18.12 15.27 20.72 16.73 9.06 3.71 0.90 -7.42 -8.62 -10.90 -3.06 -0.70 6.79 10.06 15.02 19.90 18.64 16.75 17.64 14.58 12.87 10.32 5.99 3.37 -2.36 -7.65 -6.96 -10.14 -9.27 -10.89 -12.32 -9.89 -9.35 -9.70 -8.35 -9.26 -12.67 -13.59 -14.23 -19.23 -19.72 -19.72 -19.13 -18.73 -22.76 -24.59 -25.23 -24.48
18.86 24.88 28.09 29.27 26.73 15.47 10.96 7.78 11.02 8.12 2.06 -6.50 2.00 2.61 -3.21 -7.88 -2.81 -0.91 -0.27 6.42 9.83 10.85 11.66 10.99 10.96 12.12 8.65 -0.61 -2.59 -2.92 -3.28 -5.11 -8.80 -7.97 -10.27 -9.11 -7.82 -8.88 -9.78 -10.42 -11.59 -13.92 -15.79 -17.64 -17.02 -14.58 -18.26 -19.44 -18.81 -20.56 -21.73 -22.60 -20.30 -22.82
26.39 26.93 26.31 25.02 23.84 14.54 8.49 5.69 5.81 6.84 1.27 -0.65 -2.94 -1.68 -0.01 -0.66 -3.79 -7.89 -5.53 2.19 8.08 9.48 8.82 3.65 -8.00 -11.77 -9.36 -9.47 -8.96 -7.02 -5.02 -3.12 -5.78 -6.13 -8.16 -8.82 -9.37 -10.05 -11.16 -11.24 -9.99 -12.15 -14.14 -17.82 -17.22 -15.55 -20.37 -20.71 -22.74 -24.52 -25.82 -23.67 -22.43 -20.84
19.15 17.97 21.55 15.97 10.45 7.52 4.34 2.30 -2.05 -0.35 -0.91 -4.86 -2.92 2.47 0.32 1.29 -3.49 -7.04 -5.14 0.71 -1.33 -9.70 -8.90 -14.15 -13.77 -11.25 -8.75 -10.18 -10.55 -10.57 -7.57 -7.24 -4.08 -6.30 -7.56 -10.55 -10.60 -10.21 -12.07 -12.19 -12.57 -13.19 -12.39 -14.03 -14.16 -19.12 -21.93 -21.75 -21.44 -25.24 -25.41 -23.88 -25.82 -24.79
12.03 20.45 12.23 15.41 6.07 2.69 0.22 0.27 -0.36 0.10 -1.08 -8.17 -1.58 -1.89 -6.29 -5.83 -9.14 -9.03 -3.80 -7.49 -12.80 -15.79 -16.10 -16.89 -15.09 -13.95 -11.87 -11.80 -12.85 -12.13 -11.34 -8.17 -8.55 -8.84 -7.45 -8.15 -11.12 -10.23 -10.86 -12.49 -13.90 -20.35 -23.23 -24.50 -26.26 -24.77 -25.26 -25.53 -26.59 -26.33 -25.30 -22.69 -19.82 -18.97
13.31 13.51 7.07 4.10 -1.14 -6.00 -9.76 -2.61 -3.32 -2.56 -4.93 -5.93 -7.38 -5.22 -9.99 -13.64 -10.68 -4.10 -11.47 -15.14 -16.68 -13.46 -17.11 -16.90 -15.55 -14.28 -14.11 -12.15 -11.22 -9.79 -10.34 -8.62 -9.08 -10.02 -9.94 -11.38 -12.48 -15.01 -15.74 -23.27 -24.78 -23.08 -23.85 -23.54 -28.15 -27.62 -22.92 -18.32 -19.38 -19.70 -20.02 -17.72 -16.47 -13.17
5.27 -5.25 -5.49 -8.28 -6.77 -11.39 -11.99 -9.77 -5.29 -7.16 -7.41 -9.67 -8.55 -8.77 -11.80 -12.16 -10.19 -7.13 -17.07 -20.69 -14.57 -13.36 -15.35 -16.16 -14.28 -11.26 -9.79 -9.93 -11.24 -13.25 -13.90 -14.87 -15.39 -14.93 -14.98 -13.06 -15.14 -19.99 -23.41 -23.23 -28.20 -28.07 -25.06 -25.34 -24.74 -24.23 -23.34 -21.62 -15.46 -15.96 -13.03 -11.96 -11.51 -11.05
-3.15 -17.34 -12.82 -15.41 -13.71 -14.61 -16.81 -16.17 -12.26 -7.86 -11.89 -9.69 -8.15 -8.94 -12.06 -17.36 -10.09 -15.06 -16.87 -18.55 -14.87 -14.67 -14.25 -13.71 -11.95 -11.26 -14.02 -12.42 -11.10 -12.65 -16.05 -19.52 -16.05 -16.98 -18.67 -22.86 -27.51 -25.64 -23.79 -26.77 -26.19 -24.66 -26.93 -23.30 -22.87 -23.16 -20.19 -18.03 -13.97 -10.00 -10.59 -12.49 -12.54 -10.60
-22.12 -25.06 -22.11 -29.22 -20.32 -20.34 -20.22 -19.85 -19.58 -18.75 -14.41 -11.85 -15.31 -13.41 -17.18 -13.29 -16.25 -22.11 -19.63 -17.89 -18.88 -17.78 -17.62 -19.29 -20.23 -16.90 -12.13 -13.75 -13.03 -11.98 -15.80 -23.84 -24.79 -21.29 -22.64 -28.65 -26.88 -24.76 -25.52 -21.27 -21.04 -16.31 -22.39 -21.08 -20.04 -17.26 -12.50 -9.90 -10.42 -10.14 -10.24 -9.63 -8.22 -9.83
-21.26 -26.59 -26.62 -24.02 -22.44 -21.99 -17.00 -16.87 -15.64 -15.02 -18.33 -18.97 -20.36 -15.94 -10.81 -17.61 -21.64 -19.09 -19.82 -14.23 -16.63 -22.04 -22.38 -21.28 -23.25 -20.52 -19.27 -17.48 -16.70 -18.99 -19.13 -22.34 -18.79 -16.95 -20.55 -24.23 -23.06 -23.34 -18.85 -17.99 -16.69 -12.73 -15.58 -14.87 -13.87 -11.44 -9.50 -8.09 -8.38 -9.15 -9.15 -9.10 -9.54 -8.81
-29.37 -28.52 -25.56 -25.73 -25.97 -33.77 -31.81 -28.84 -24.32 -24.57 -22.51 -22.97 -20.13 -21.37 -21.00 -21.71 -24.41 -17.95 -15.53 -12.21 -13.49 -15.68 -16.63 -17.17 -17.60 -17.25 -16.33 -12.89 -11.37 -10.52 -9.41 -9.45 -11.29 -12.98 -13.32 -11.85 -12.42 -10.33 -12.30 -13.15 -10.08 -0.22 -7.97 -9.35 -9.03 -10.51 -13.11 -12.10 -12.01 -11.54 -11.40 -10.57 -9.04 -9.21
-31.96 -29.57 -28.98 -25.59 -30.95 -29.25 -31.61 -31.08 -29.99 -27.94 -27.11 -28.02 -20.98 -19.30 -19.87 -14.93 -16.49 -17.87 -14.20 -12.57 -12.41 -13.58 -12.82 -11.72 -8.75 -10.31 -10.91 -8.24 -6.91 -8.06 -7.92 -7.59 -6.75 -8.70 -10.08 -10.58 -9.72 -9.22 -10.53 -11.41 -12.96 -12.82 -14.19 -18.83 -8.49 -3.28 -8.37 -10.69 -10.37 -9.93 -10.30 -10.40 -10.12 -15.15
-30.45 -36.32 -24.29 -23.73 -24.93 -27.08 -28.11 -30.90 -29.82 -28.87 -27.84 -27.64 -26.68 -19.63 -17.12 -15.74 -12.63 -9.73 -11.54 -12.73 -13.20 -13.88 -13.13 -11.91 -9.11 -8.60 -9.48 -9.76 -10.27 -8.85 -8.94 -8.12 -9.56 -11.60 -13.40 -12.32 -11.00 -8.91 -10.47 -11.53 -10.84 -11.02 -13.13 -18.90 -12.00 -9.94 -5.47 -9.45 -11.54 -17.07 -15.18 -16.76 -17.18 -16.23
-35.08 -33.46 -28.92 -26.12 -27.73 -30.28 -29.62 -32.10 -29.24 -28.32 -26.62 -24.91 -24.68 -21.75 -20.59 -19.12 -12.66 -7.01 -9.08 -8.41 -7.62 -8.22 -9.64 -10.48 -10.31 -10.95 -11.51 -11.58 -12.13 -11.94 -11.73 -8.51 -7.59 -8.91 -9.99 -10.11 -10.06 -10.36 -10.14 -9.32 -9.44 -13.12 -20.35 -20.80 -18.30 -18.08 -14.93 -15.85 -20.59 -19.35 -19.50 -18.80 -17.99 -16.91
-24.22 -26.63 -25.23 -25.29 -28.71 -35.34 -38.68 -30.39 -28.35 -27.66 -27.26 -24.22 -22.46 -20.41 -19.52 -17.66 -18.53 -13.13 -9.19 -8.88 -10.58 -11.76 -10.40 -10.54 -12.02 -12.15 -9.91 -8.86 -8.10 -8.88 -7.51 -8.71 -8.53 -9.00 -8.39 -7.19 -6.74 -6.35 -6.29 -7.60 -10.35 -14.68 -14.31 -14.24 -17.27 -17.83 -17.70 -18.77 -17.41 -17.30 -17.13 -17.64 -17.99 -19.79
-26.98 -27.09 -26.96 -24.19 -24.32 -24.56 -24.02 -24.82 -21.14 -20.46 -19.77 -20.97 -20.15 -20.23 -20.88 -17.25 -18.91 -13.18 -7.78 -8.55 -12.21 -13.25 -12.69 -12.42 -11.35 -9.57 -10.76 -11.09 -9.39 -8.47 -9.35 -8.89 -8.71 -3.80 -3.80 -3.27 -4.37 -3.96 -5.96 -6.54 -6.27 -10.32 -12.31 -15.35 -16.90 -18.09 -18.10 -18.91 -18.39 -18.95 -19.44 -19.66 -19.47 -19.36

GFSWCAN_sfc_wetblb_033.txt.gz
Wetbulb
42.71 43.74 44.04 44.44 45.59 45.55 45.96 45.57 46.17 46.52 46.37 46.49 46.36 46.75 46.69 46.73 46.30 41.21 36.99 37.85 32.35 26.80 29.56 31.39 31.97 29.71 28.58 30.60 26.33 25.84 27.25 26.66 24.66 23.87 21.66 18.84 15.04 16.59 13.86 16.14 15.55 13.43 11.40 10.62 9.89 9.92 7.60 21.96 20.95 17.69 22.08 22.35 22.36 21.35
41.22 42.78 43.82 43.99 44.74 45.16 45.47 45.87 46.18 46.08 46.52 46.44 46.43 46.56 46.58 46.44 46.27 43.43 36.45 38.61 36.62 28.11 27.91 34.23 34.63 35.23 33.33 32.69 27.90 25.96 27.48 24.08 26.94 21.74 19.08 19.05 12.45 10.77 10.35 7.34 19.76 14.25 17.24 13.07 15.96 14.25 22.24 23.16 23.73 26.30 25.45 22.98 23.00 23.31
39.93 41.20 42.73 43.51 43.98 44.41 44.65 45.40 45.62 45.96 45.94 46.26 46.25 46.38 46.44 46.51 46.39 44.48 38.74 36.60 36.77 30.09 26.99 30.97 29.41 34.02 36.30 34.43 34.00 26.63 24.40 27.64 26.74 27.26 20.52 18.35 12.40 17.84 6.48 8.81 12.44 18.02 19.62 16.62 15.81 19.32 20.56 23.28 24.95 25.49 25.56 25.17 26.05 25.73
38.94 40.00 42.03 43.03 43.24 43.62 44.00 44.68 45.30 45.36 45.49 45.78 45.92 46.03 46.21 46.27 46.22 45.38 39.19 39.62 36.28 32.36 19.75 23.50 30.14 31.23 35.07 34.20 32.47 32.10 30.20 29.04 28.57 27.15 19.63 15.12 12.40 22.68 15.25 18.12 16.56 19.79 19.32 16.04 15.79 21.03 21.79 23.03 23.98 25.27 25.81 25.44 25.15 25.09
38.85 39.92 41.09 42.44 42.62 43.16 43.50 44.18 44.51 44.85 44.98 45.29 45.50 45.72 45.87 45.83 46.14 44.75 42.05 40.08 39.71 30.04 21.06 18.18 24.21 30.12 32.24 32.66 31.12 30.60 30.09 27.84 25.29 21.20 14.85 14.60 19.46 19.50 16.86 20.27 16.09 21.00 20.85 17.40 14.17 23.26 23.59 24.32 24.81 25.82 24.51 25.14 25.44 24.10
38.58 39.53 40.49 41.89 42.41 42.80 43.05 43.61 43.89 43.94 44.36 44.66 44.94 45.02 45.09 45.31 45.90 41.06 32.72 40.17 40.65 38.94 30.55 19.70 26.82 23.44 27.88 29.56 29.38 28.29 28.37 26.49 24.91 22.94 19.80 21.74 25.48 23.01 12.41 7.99 25.06 26.61 24.27 25.43 23.85 26.96 25.86 25.83 25.67 25.47 24.16 24.46 24.95 23.57
38.44 39.59 40.10 42.22 42.13 42.62 42.86 43.14 43.49 43.68 43.70 44.19 43.93 43.48 44.62 44.83 42.36 33.15 32.24 36.07 42.14 39.51 30.54 24.09 20.95 23.09 27.65 26.51 23.68 26.66 27.33 25.04 25.60 24.51 20.60 23.59 23.50 26.10 22.11 11.30 25.81 24.52 25.19 25.27 25.89 24.87 23.26 24.43 24.77 26.08 24.91 24.83 22.71 20.30
39.03 39.76 40.38 41.43 41.80 42.60 42.37 42.50 42.78 43.28 43.35 43.60 43.51 42.66 41.49 42.48 42.09 34.63 38.18 41.70 41.94 34.92 31.51 24.31 16.88 20.51 28.97 25.17 25.57 27.17 26.47 26.83 26.04 27.61 25.54 21.37 25.21 26.43 18.15 23.29 25.01 25.06 24.81 23.69 24.58 25.81 27.42 26.40 22.09 22.73 20.66 18.21 16.68 18.45
38.07 39.60 39.89 41.72 41.39 42.05 42.09 42.23 42.43 42.66 43.07 43.08 42.92 42.61 38.43 35.57 32.45 34.01 41.45 40.86 40.02 33.47 25.45 22.73 13.94 12.96 26.72 27.23 26.67 27.37 29.23 23.10 28.92 24.31 23.64 25.57 21.10 18.11 21.56 22.69 23.15 25.28 24.79 25.92 24.88 21.03 20.89 20.51 23.54 20.06 16.74 12.36 14.97 16.92
37.73 38.57 39.79 40.24 40.55 41.51 41.70 41.96 42.04 42.29 42.52 42.35 37.47 32.16 28.55 31.56 38.40 40.49 36.33 31.57 30.99 30.06 29.79 18.02 9.43 9.11 23.28 21.55 20.77 20.98 23.07 19.92 18.72 21.72 24.66 22.66 20.34 26.26 25.26 22.51 24.33 25.92 26.28 24.80 15.61 13.96 6.72 11.71 17.63 17.11 15.62 12.82 13.75 10.80
38.41 39.03 39.95 39.55 38.76 41.21 41.37 41.54 41.76 41.70 41.56 32.98 29.74 27.22 30.86 38.25 33.29 27.68 24.76 22.94 24.57 21.99 25.15 13.64 12.39 16.24 22.22 17.16 14.70 23.65 19.26 19.81 14.80 13.41 19.18 17.01 12.08 24.04 25.68 23.97 25.96 24.70 22.88 19.33 22.34 23.30 17.45 16.76 17.58 15.47 9.47 8.11 7.18 4.87
38.44 39.41 39.70 39.75 40.28 41.13 41.03 41.00 40.80 35.16 32.65 32.81 31.82 34.63 33.42 30.66 24.95 21.56 20.86 18.06 20.40 12.87 13.46 18.93 13.49 16.78 14.06 17.31 15.13 21.21 17.64 18.57 13.20 11.98 14.12 7.65 18.17 24.33 18.46 22.67 25.03 26.02 19.85 16.43 11.02 13.69 9.50 10.01 7.64 8.58 5.01 1.21 -1.82 -2.07
38.53 39.46 39.07 38.78 39.70 40.26 40.19 40.62 39.21 39.14 36.29 32.63 28.51 24.10 25.39 23.53 18.17 14.16 14.09 12.01 11.50 8.04 16.16 16.43 14.71 18.57 19.59 21.53 18.98 18.29 14.27 11.72 13.90 14.45 12.53 11.16 21.52 13.33 17.18 17.74 6.55 1.01 3.54 4.20 1.30 1.63 1.07 -1.19 -2.38 -3.06 -4.29 -5.13 -6.60 -9.81
36.43 37.01 37.07 37.07 37.00 37.01 37.31 38.66 39.61 37.04 30.89 24.13 21.13 16.32 17.42 14.32 14.13 16.13 4.40 6.63 11.94 10.56 12.71 12.35 17.82 17.56 19.06 18.70 20.56 15.17 17.65 14.81 11.35 10.06 5.79 14.94 7.46 2.92 3.11 -1.77 -1.19 -3.38 -2.67 -0.07 -3.22 -3.47 -4.50 -5.17 -7.71 -9.16 -10.28 -10.88 -10.43 -12.17
35.38 35.61 35.75 35.28 35.90 36.15 36.28 36.61 38.68 33.73 26.89 21.25 21.13 14.00 13.65 5.74 -0.38 -5.71 -7.51 1.48 7.80 8.43 17.46 15.56 15.76 21.06 16.43 19.20 21.10 17.78 11.80 10.32 11.13 5.53 5.96 -0.28 -1.77 -3.47 -2.99 -6.97 -8.57 -5.49 -6.41 -8.92 -9.75 -8.39 -8.12 -8.50 -10.97 -16.36 -21.27 -17.01 -14.71 -15.20
32.94 31.31 30.00 33.77 34.90 35.67 35.32 35.92 33.68 31.42 26.49 22.00 18.37 12.53 -0.09 3.66 -0.74 -0.25 -1.54 5.78 11.90 19.54 19.47 19.55 16.36 17.91 16.41 16.37 12.99 12.52 9.13 4.70 6.42 -2.36 -7.49 -5.69 -8.03 -8.23 -9.41 -10.47 -9.76 -8.31 -8.89 -11.44 -10.30 -10.70 -7.96 -8.47 -10.09 -14.34 -19.60 -21.44 -22.25 -18.52
29.23 15.33 29.86 31.07 31.72 31.56 32.69 25.85 26.30 23.36 18.39 17.63 10.52 -9.74 -5.58 3.44 8.19 5.81 5.53 10.83 15.52 17.03 12.35 17.36 14.90 14.29 19.25 13.94 12.78 13.07 8.17 -0.34 -6.40 -8.10 -8.14 -10.88 -11.63 -13.06 -11.96 -11.53 -11.52 -11.32 -11.47 -10.50 -11.41 -11.96 -11.69 -16.21 -14.68 -11.84 -14.20 -19.95 -24.19 -24.70
19.14 21.60 29.49 30.97 25.05 22.77 12.12 15.36 18.73 15.19 7.92 5.30 4.33 -5.62 -6.66 -8.98 -4.00 -1.32 3.22 8.54 12.00 14.34 15.54 16.41 18.79 13.90 12.53 9.51 6.37 2.55 0.45 -2.49 -3.85 -5.31 -6.75 -9.90 -12.53 -9.43 -10.37 -13.22 -15.90 -13.11 -11.51 -12.45 -10.82 -11.97 -12.56 -10.95 -10.21 -12.13 -14.95 -22.85 -21.15 -21.53
19.56 22.44 27.26 28.21 25.10 9.48 4.60 6.94 11.37 7.01 1.77 -0.96 3.05 1.82 -1.54 -2.94 -0.07 -0.43 -1.86 6.33 9.34 11.01 13.94 14.45 12.66 10.35 0.96 -4.43 -7.66 -5.63 -6.03 -5.73 -6.23 -7.40 -9.28 -11.55 -8.51 -9.80 -10.07 -10.64 -10.24 -9.10 -9.68 -11.04 -10.76 -11.65 -13.43 -15.18 -12.27 -12.42 -15.61 -18.97 -18.36 -23.66
27.04 26.86 25.72 24.59 23.82 11.32 0.29 1.36 5.66 7.17 2.50 0.94 0.54 1.32 0.81 0.15 0.62 -1.68 0.28 4.50 9.89 8.70 0.29 -2.73 -11.83 -12.75 -11.06 -9.92 -9.63 -9.83 -7.66 -6.38 -7.24 -9.40 -8.19 -6.64 -7.40 -7.82 -8.92 -8.37 -10.72 -13.28 -12.24 -12.43 -11.98 -11.43 -11.73 -12.95 -16.65 -19.53 -22.48 -21.89 -20.71 -20.25
18.78 19.69 20.72 13.22 10.16 7.67 3.31 0.69 -3.21 -0.77 -0.38 -1.73 -1.63 1.03 -1.88 -0.12 -3.46 -2.38 -1.63 1.92 -3.20 -12.57 -10.88 -12.89 -11.39 -11.39 -10.08 -9.14 -9.44 -11.15 -8.25 -9.11 -7.95 -6.54 -5.29 -5.93 -7.46 -7.36 -9.57 -10.43 -10.13 -11.35 -12.29 -12.32 -10.78 -13.42 -15.08 -13.06 -18.93 -24.14 -25.00 -24.39 -27.98 -27.22
13.85 19.75 7.69 14.96 7.59 3.52 -0.01 -0.47 -3.29 -3.41 -3.96 -10.40 -5.29 -3.94 -7.00 -8.48 -10.10 -9.65 -3.93 -8.90 -12.47 -14.53 -15.94 -15.75 -15.53 -15.60 -15.58 -13.80 -13.85 -13.65 -12.06 -9.82 -5.74 -5.41 -5.79 -6.28 -9.51 -9.78 -10.23 -10.42 -9.50 -11.48 -13.48 -15.79 -15.46 -15.62 -18.46 -21.19 -25.86 -27.80 -27.09 -24.55 -22.96 -23.10
12.98 12.55 6.38 3.37 0.03 -3.18 -7.51 0.49 -4.31 -4.56 -6.89 -7.83 -8.24 -5.46 -10.07 -10.11 -8.72 -2.24 -12.18 -13.79 -14.67 -11.72 -14.64 -16.06 -15.52 -15.09 -16.99 -15.07 -13.23 -11.71 -11.26 -10.91 -9.99 -9.94 -9.11 -9.19 -9.97 -9.83 -11.04 -12.92 -13.72 -13.95 -15.11 -14.72 -18.52 -20.23 -22.23 -18.42 -20.61 -21.94 -22.81 -21.31 -21.70 -20.14
4.70 -6.15 -6.61 -9.10 -5.87 -8.94 -7.31 -6.79 -3.02 -3.54 -5.82 -8.09 -6.72 -9.47 -13.19 -13.56 -8.61 -8.90 -17.69 -18.02 -16.86 -13.77 -14.97 -15.74 -18.34 -16.18 -15.76 -13.99 -13.77 -11.87 -12.97 -11.91 -10.43 -11.24 -13.04 -11.79 -11.76 -16.50 -17.49 -18.36 -19.59 -21.23 -18.03 -23.10 -25.75 -26.11 -25.28 -23.95 -19.01 -20.27 -19.87 -20.74 -20.07 -15.16
-5.74 -17.81 -13.12 -15.71 -12.31 -11.15 -12.16 -12.23 -11.35 -8.16 -13.13 -12.01 -9.80 -12.76 -16.32 -12.83 -10.87 -16.14 -17.48 -17.71 -15.99 -19.33 -18.35 -18.97 -20.36 -18.57 -20.53 -16.44 -12.34 -12.09 -13.96 -13.49 -11.04 -10.17 -13.59 -14.91 -15.31 -16.80 -14.67 -16.62 -16.06 -15.35 -19.93 -23.43 -23.90 -25.40 -25.08 -25.48 -20.96 -16.83 -14.09 -15.85 -12.83 -9.71
-23.58 -24.02 -20.75 -22.95 -18.47 -17.28 -18.13 -17.03 -17.26 -19.06 -15.58 -14.16 -14.40 -11.85 -11.19 -9.53 -15.48 -22.78 -22.59 -18.14 -17.14 -17.75 -16.73 -18.83 -20.79 -19.56 -13.64 -13.74 -13.04 -11.01 -12.37 -15.76 -14.58 -10.95 -11.91 -14.72 -14.49 -15.53 -19.80 -21.43 -22.90 -17.53 -27.49 -27.05 -25.11 -22.52 -18.92 -11.85 -10.98 -11.39 -11.41 -8.99 -7.07 -7.70
-24.26 -25.94 -22.83 -19.72 -20.19 -19.09 -17.18 -16.50 -15.63 -17.86 -21.58 -21.17 -22.45 -14.97 -11.49 -19.02 -21.93 -20.62 -16.83 -14.07 -15.56 -14.77 -15.26 -15.69 -21.00 -19.83 -19.07 -15.90 -12.80 -13.86 -15.36 -19.26 -17.64 -16.44 -20.40 -23.01 -23.94 -24.12 -20.77 -19.09 -17.08 -13.46 -15.93 -18.19 -18.07 -16.94 -13.50 -9.47 -8.23 -7.89 -8.07 -7.94 -8.36 -7.66
-28.15 -26.32 -24.42 -23.14 -22.11 -25.04 -23.09 -22.08 -23.27 -25.73 -23.38 -23.98 -20.80 -23.07 -23.05 -23.62 -24.75 -17.60 -13.49 -11.13 -12.05 -12.27 -12.42 -12.82 -14.58 -15.27 -15.24 -13.12 -10.87 -8.89 -9.34 -8.75 -12.45 -13.96 -12.51 -12.77 -13.21 -11.73 -11.00 -12.00 -11.84 -1.89 -8.75 -9.30 -10.88 -11.44 -12.07 -12.37 -12.47 -11.78 -12.48 -11.61 -9.42 -7.80
-24.96 -26.28 -26.17 -22.74 -29.16 -28.59 -30.72 -29.58 -29.85 -27.45 -27.04 -27.92 -21.90 -20.37 -20.02 -15.70 -15.20 -16.49 -13.58 -11.43 -11.15 -12.21 -11.57 -11.93 -9.44 -10.13 -10.49 -9.33 -7.46 -7.69 -7.93 -8.80 -9.29 -10.78 -11.17 -10.87 -9.43 -8.78 -6.59 -7.92 -9.03 -9.21 -10.32 -13.70 -6.75 -2.14 -4.19 -7.42 -8.10 -8.52 -10.19 -9.81 -9.41 -12.18
-26.48 -30.23 -24.72 -25.97 -26.24 -28.22 -28.62 -30.48 -29.75 -28.76 -26.43 -26.47 -24.81 -15.49 -14.70 -14.04 -11.50 -8.99 -9.32 -9.46 -10.78 -11.22 -10.33 -10.29 -10.19 -10.14 -11.51 -11.56 -11.37 -9.47 -8.95 -8.16 -9.76 -13.09 -15.97 -14.87 -13.00 -9.19 -8.86 -8.94 -9.01 -8.32 -9.76 -12.49 -11.58 -12.42 -7.78 -10.66 -11.59 -17.22 -14.98 -15.91 -16.71 -15.15
-29.54 -27.98 -24.00 -22.88 -24.41 -25.74 -27.72 -30.27 -27.91 -26.31 -24.66 -22.22 -21.24 -17.97 -19.37 -18.45 -13.41 -8.29 -9.40 -8.63 -9.01 -9.59 -10.99 -12.25 -11.94 -11.34 -12.91 -12.88 -13.55 -14.57 -13.86 -10.61 -9.66 -9.92 -9.71 -9.45 -8.77 -8.47 -8.56 -7.81 -7.39 -8.06 -11.72 -16.10 -19.29 -23.16 -21.47 -22.36 -24.80 -25.55 -24.15 -23.55 -22.58 -19.23
-25.01 -30.21 -27.94 -26.10 -26.49 -27.22 -30.02 -27.24 -26.42 -25.46 -24.50 -22.25 -22.41 -20.22 -19.29 -17.69 -18.63 -13.65 -9.44 -10.03 -12.00 -13.35 -12.40 -12.54 -13.90 -13.34 -10.70 -11.05 -9.92 -10.24 -8.52 -10.11 -10.90 -10.81 -9.67 -9.24 -8.52 -7.48 -6.23 -6.55 -7.53 -9.68 -13.30 -12.65 -15.86 -19.22 -21.20 -23.79 -22.70 -23.18 -21.30 -22.13 -21.67 -21.91
-25.62 -24.50 -24.47 -22.17 -23.80 -23.92 -23.49 -24.48 -21.32 -20.79 -19.90 -21.02 -19.99 -19.82 -19.95 -17.70 -19.36 -13.73 -9.52 -8.17 -11.58 -12.24 -12.47 -11.75 -11.31 -11.11 -10.85 -11.62 -11.80 -11.26 -11.86 -12.55 -12.06 -6.85 -6.66 -6.43 -7.36 -6.80 -8.55 -9.63 -11.32 -13.67 -16.16 -18.29 -18.25 -19.95 -20.71 -21.90 -21.70 -22.42 -23.13 -23.29 -22.58 -22.03

GFSWCAN_sfc_wetblb_036.txt.gz
Wetbulb
40.88 41.49 41.96 42.65 43.58 44.43 44.85 45.42 45.92 46.26 46.58 46.53 46.72 46.90 47.26 47.07 45.79 39.73 35.19 38.36 34.42 29.35 29.34 30.72 32.25 31.11 31.23 32.01 27.80 26.58 27.89 27.22 26.74 25.40 25.40 22.29 21.52 19.43 17.71 18.60 17.52 18.07 18.59 16.45 17.22 15.82 15.11 21.96 21.22 19.28 23.06 22.02 22.02 21.30
40.14 40.54 41.07 41.60 42.37 43.74 44.34 44.79 45.61 46.08 46.24 46.54 46.50 46.49 46.53 46.93 46.86 42.95 36.53 38.24 36.24 30.35 29.78 33.87 33.93 34.24 34.16 35.76 30.40 28.12 30.08 25.92 29.38 25.93 24.10 21.71 17.91 16.96 17.74 14.57 20.56 17.39 20.24 16.84 20.21 18.93 22.25 24.51 23.83 25.49 25.57 23.04 22.51 22.80
39.49 39.92 40.02 40.36 41.26 42.43 43.77 44.31 45.27 45.52 45.73 46.03 46.58 46.67 46.46 46.62 46.70 43.37 37.26 35.20 36.15 26.34 28.51 28.53 28.21 33.62 35.94 35.01 35.08 28.78 26.99 29.33 28.50 29.33 24.05 22.27 18.70 19.18 11.75 12.90 15.48 18.90 20.42 18.49 18.68 20.09 21.54 23.68 25.36 25.37 25.61 25.17 25.65 25.29
38.95 39.41 39.75 39.55 40.21 41.13 42.55 43.92 44.72 45.01 45.57 45.65 45.98 45.95 46.17 46.30 46.39 43.98 38.00 36.94 34.40 28.88 19.72 24.46 30.11 30.57 34.89 34.74 32.55 32.47 30.62 29.24 28.38 27.64 22.38 18.88 16.50 23.13 15.97 19.43 18.60 20.66 19.97 16.59 16.80 20.75 22.14 23.69 24.49 26.33 25.75 25.53 24.81 24.47
38.82 39.04 39.29 39.48 39.50 40.49 41.84 43.48 43.82 44.24 44.83 45.29 45.51 45.88 45.82 45.98 45.99 44.28 41.02 39.60 38.93 32.46 21.32 20.91 24.95 29.73 32.14 32.29 30.71 30.28 29.84 27.82 25.27 21.79 18.66 16.07 21.34 20.37 18.47 20.13 15.75 20.82 19.50 17.68 15.69 23.44 23.56 24.38 26.62 26.86 24.52 24.44 24.56 23.72
39.25 39.28 39.16 39.07 39.26 40.12 41.53 43.07 43.28 43.60 44.04 44.93 45.10 45.39 45.72 45.76 45.97 41.32 33.15 39.33 39.97 38.56 26.47 17.32 25.98 23.31 28.64 29.82 28.52 27.95 27.97 26.62 24.27 22.02 19.22 21.99 25.07 22.27 10.87 8.53 22.06 23.18 24.12 25.63 23.36 25.35 25.09 26.61 26.24 24.96 24.26 24.40 24.53 23.08
38.73 38.59 38.89 38.87 39.50 40.45 41.25 42.59 42.93 43.33 43.67 44.17 44.84 45.10 45.33 45.34 41.18 34.92 31.65 36.86 41.85 39.60 30.20 19.05 15.61 23.57 27.81 26.20 24.55 26.29 27.14 25.54 24.98 21.78 17.33 23.43 23.26 23.31 13.40 11.98 25.41 24.65 25.22 24.57 26.04 24.82 22.71 23.34 24.54 24.77 24.36 24.41 22.20 20.19
37.93 38.34 38.45 38.48 39.08 40.31 41.35 42.45 42.69 42.99 43.57 43.57 43.97 44.82 42.90 42.21 42.32 36.16 39.51 42.15 41.80 33.76 31.42 23.93 12.66 22.05 28.04 24.56 24.00 26.42 23.97 22.61 21.89 23.51 24.92 20.39 24.73 25.01 15.58 22.85 23.69 25.65 24.92 24.35 24.79 25.46 27.61 24.37 22.81 22.73 20.85 18.65 16.35 18.61
37.29 37.55 38.05 38.99 39.88 39.82 41.79 42.21 42.39 42.74 43.10 42.78 43.69 42.90 38.83 34.15 31.86 32.88 41.41 42.34 39.41 33.54 26.28 24.83 16.04 14.72 26.78 26.44 26.07 25.48 28.99 22.10 27.77 22.44 22.17 24.99 21.07 17.04 21.84 23.41 22.76 24.22 22.88 24.00 21.83 20.98 20.28 20.80 23.57 20.40 17.41 12.90 16.11 18.29
36.88 36.91 37.52 38.67 40.03 40.22 41.09 41.66 41.61 42.53 43.01 42.92 39.53 31.78 27.62 32.78 39.56 40.27 34.70 30.77 30.41 29.58 29.37 21.97 4.57 12.41 24.43 21.22 21.13 20.39 21.15 19.54 19.20 20.43 24.46 22.77 16.24 24.92 24.43 22.77 24.06 25.06 24.37 21.99 15.83 14.61 8.07 11.91 18.15 18.34 16.94 17.48 19.18 14.26
36.61 36.84 37.69 38.87 39.55 39.79 40.55 42.23 42.06 42.33 42.30 34.12 29.71 26.56 31.65 39.23 32.07 27.54 25.36 22.18 25.38 21.72 26.59 18.16 12.26 15.88 20.38 13.91 13.54 23.66 20.14 21.86 15.66 13.97 16.52 12.65 9.80 24.31 25.56 24.07 24.97 24.80 24.11 21.55 24.44 24.27 18.35 18.45 18.81 17.76 14.45 11.63 9.49 7.37
37.60 37.86 38.68 39.32 39.84 39.63 39.64 41.59 41.85 37.43 32.22 32.31 32.06 35.18 34.24 28.49 23.68 20.82 19.95 21.03 16.76 14.70 13.95 19.34 14.48 15.26 15.47 20.44 20.40 22.68 18.73 18.06 6.70 11.22 13.80 4.00 16.94 20.49 19.33 23.64 25.33 22.47 17.62 17.07 13.21 17.50 10.85 11.52 7.73 8.76 7.19 3.80 0.23 -0.29
39.33 39.21 38.82 38.42 39.96 39.63 39.95 41.73 39.78 39.20 35.95 32.54 28.58 26.38 24.95 22.81 16.17 15.85 14.16 8.89 13.84 5.99 16.02 12.84 14.32 17.47 18.01 20.42 18.14 17.44 14.55 13.74 15.28 14.76 13.24 11.87 17.49 8.43 4.61 6.87 9.71 3.74 3.83 5.05 1.83 2.79 2.67 0.08 -1.08 -2.07 -2.69 -4.05 -5.33 -7.79
37.44 37.89 37.84 37.58 39.48 40.73 41.88 40.99 39.73 36.76 31.29 24.78 21.95 16.95 14.58 14.35 14.15 16.17 4.90 4.00 7.88 7.07 15.32 9.95 17.21 15.85 12.67 13.80 17.75 10.11 12.83 11.96 8.45 8.55 4.83 4.55 -2.85 -2.98 -1.49 -1.72 -5.21 -1.16 -4.21 -0.43 -3.63 -2.76 -3.11 -3.92 -6.60 -7.39 -7.72 -7.83 -7.48 -9.53
34.50 34.86 35.84 36.30 37.12 37.93 39.40 39.61 37.34 31.40 23.72 20.67 20.36 13.39 7.48 1.31 -4.83 -4.63 -3.36 -0.82 4.37 3.11 13.72 12.86 11.89 19.48 14.21 17.53 19.54 15.36 12.15 9.86 5.82 4.02 -0.47 -6.11 -5.92 -7.24 -6.24 -7.40 -8.58 -9.11 -9.26 -9.52 -11.62 -9.58 -7.90 -8.39 -9.94 -14.08 -14.83 -11.99 -11.58 -12.43
31.87 30.55 29.73 33.88 35.79 36.90 36.93 35.52 32.62 29.85 25.35 18.92 14.87 9.38 0.53 3.23 0.33 -0.82 -2.95 5.04 11.62 17.33 15.48 17.21 12.84 16.72 15.66 15.80 13.90 12.55 10.92 5.06 3.45 -6.62 -7.61 -7.26 -10.35 -11.92 -13.70 -13.51 -13.50 -15.61 -15.78 -13.30 -11.22 -8.32 -8.74 -10.04 -11.19 -16.15 -17.69 -17.35 -14.51 -12.15
29.25 18.38 31.18 32.55 33.26 31.36 31.22 24.06 23.86 19.22 16.19 15.63 3.82 -8.99 -7.58 -1.91 1.84 -1.43 0.57 8.97 16.50 18.32 17.25 19.50 15.30 12.67 17.16 13.43 12.29 11.60 9.42 4.20 -1.71 -2.58 -5.99 -7.70 -8.78 -10.87 -12.83 -15.85 -16.72 -18.25 -16.80 -16.56 -16.47 -15.31 -16.83 -16.03 -15.40 -12.68 -12.32 -15.68 -12.48 -15.21
19.96 21.45 29.74 30.67 24.55 20.61 9.73 14.02 14.98 11.59 4.64 3.34 3.78 -3.05 -9.62 -7.77 -5.19 -1.72 4.56 9.28 15.30 17.54 17.31 16.46 18.23 13.21 11.88 10.44 7.39 -2.20 -2.36 -1.78 -1.87 -4.27 -5.85 -8.33 -10.31 -13.89 -12.99 -15.44 -13.17 -12.12 -14.38 -16.17 -18.81 -18.81 -16.06 -10.75 -8.35 -8.30 -9.13 -11.28 -11.01 -12.67
19.17 23.18 27.83 28.89 21.41 5.16 3.81 4.22 10.92 6.00 0.59 -1.51 3.24 3.35 1.56 -3.03 0.35 2.45 2.84 8.67 10.30 11.26 14.26 12.52 12.83 6.67 -2.96 -6.35 -8.16 -6.19 -7.98 -8.14 -7.70 -5.80 -7.40 -11.94 -10.76 -15.26 -14.03 -11.68 -12.03 -12.52 -12.96 -14.23 -13.00 -9.84 -9.95 -8.31 -8.63 -10.76 -10.63 -9.82 -9.43 -12.60
27.08 26.48 25.80 24.69 21.22 3.04 -2.63 -1.32 1.14 7.51 1.36 0.54 0.10 2.15 2.05 0.64 1.84 2.82 2.85 4.81 5.09 1.91 -8.49 -9.25 -14.81 -14.46 -12.30 -10.96 -9.71 -10.43 -9.39 -7.47 -9.55 -10.26 -9.76 -7.45 -6.98 -8.06 -9.22 -8.66 -10.45 -11.21 -11.15 -13.13 -11.94 -10.86 -10.40 -10.10 -10.29 -11.19 -12.49 -12.54 -13.75 -17.79
18.67 18.93 20.32 12.06 8.74 4.23 -3.51 -2.73 -5.32 -3.73 0.67 -0.75 -0.29 1.43 0.01 1.32 -2.28 -3.28 -3.82 -0.45 -6.84 -13.68 -13.94 -14.93 -14.17 -13.33 -11.58 -11.17 -9.04 -11.25 -9.63 -9.80 -11.41 -11.72 -12.25 -7.39 -6.57 -6.37 -8.05 -8.47 -8.23 -8.19 -8.15 -9.29 -9.15 -9.65 -8.09 -8.72 -10.83 -14.55 -14.35 -19.33 -24.11 -24.16
13.51 18.69 5.20 13.15 7.05 4.55 1.05 -0.71 -5.03 -3.82 -3.98 -7.90 -1.80 -1.76 -6.24 -8.28 -9.12 -8.80 -3.48 -11.86 -14.25 -14.10 -14.55 -14.71 -14.19 -14.15 -13.89 -12.63 -11.95 -11.71 -11.49 -11.64 -9.30 -7.51 -6.27 -6.26 -7.90 -7.10 -7.74 -8.28 -6.81 -8.63 -8.80 -9.97 -10.55 -13.66 -14.43 -13.44 -15.92 -20.88 -23.53 -22.31 -21.87 -22.86
12.19 11.43 5.37 3.78 2.54 0.56 -4.06 0.69 -4.35 -3.83 -5.91 -6.62 -4.09 -3.93 -7.65 -7.17 -6.52 -2.21 -13.19 -13.56 -15.52 -12.35 -15.48 -16.18 -14.58 -13.75 -14.43 -12.31 -12.00 -11.50 -12.78 -13.81 -16.29 -13.28 -11.42 -10.16 -9.79 -8.87 -9.11 -10.93 -10.89 -12.11 -11.88 -13.07 -14.80 -16.12 -20.08 -17.01 -20.32 -21.71 -23.58 -22.82 -23.76 -22.84
4.00 -7.61 -7.48 -8.86 -7.27 -9.86 -6.37 -6.17 -2.51 -3.86 -4.54 -8.32 -7.72 -10.39 -13.80 -12.34 -6.43 -11.52 -19.54 -19.21 -14.36 -12.14 -14.48 -15.99 -16.41 -14.66 -13.11 -14.26 -15.21 -14.95 -15.11 -15.16 -12.51 -12.17 -12.25 -8.49 -9.40 -11.95 -12.09 -12.38 -12.91 -14.87 -16.48 -16.73 -17.32 -22.28 -23.52 -24.05 -17.59 -18.73 -19.80 -23.07 -25.32 -23.60
-8.01 -19.63 -15.30 -17.92 -13.35 -14.90 -15.35 -13.91 -12.40 -9.71 -12.62 -12.72 -12.93 -12.71 -13.94 -14.56 -14.73 -18.90 -18.90 -18.39 -16.53 -16.55 -16.06 -16.24 -16.53 -15.44 -18.83 -17.92 -14.22 -14.87 -15.30 -14.68 -11.69 -11.74 -12.06 -11.10 -10.40 -9.82 -9.90 -11.52 -12.96 -17.01 -17.79 -19.33 -19.46 -20.01 -19.47 -21.34 -19.76 -21.80 -20.64 -23.61 -22.73 -21.71
-25.64 -23.65 -22.54 -24.34 -21.50 -19.94 -17.51 -16.80 -18.39 -19.23 -15.71 -16.97 -18.51 -14.60 -15.28 -13.80 -19.76 -24.02 -21.31 -18.66 -18.77 -18.06 -16.47 -18.64 -20.91 -18.96 -15.32 -14.27 -15.43 -13.27 -12.66 -13.49 -13.52 -10.69 -11.79 -12.25 -10.98 -11.06 -12.47 -12.69 -12.71 -11.06 -16.79 -20.46 -20.21 -21.51 -22.20 -17.98 -18.97 -18.25 -18.25 -16.51 -11.93 -12.72
-25.11 -25.54 -21.70 -16.85 -19.58 -18.69 -16.44 -15.45 -15.59 -19.04 -23.51 -23.98 -25.56 -16.67 -13.90 -20.62 -24.14 -21.51 -15.63 -13.54 -15.68 -15.09 -12.38 -12.74 -16.19 -16.39 -16.68 -15.54 -12.27 -10.95 -10.97 -14.51 -15.54 -14.93 -16.06 -15.64 -15.34 -15.80 -13.66 -14.91 -16.35 -13.31 -16.77 -20.86 -22.56 -21.37 -19.88 -18.75 -16.76 -14.99 -13.08 -12.57 -13.61 -14.74
-24.43 -25.76 -25.75 -22.71 -22.38 -22.05 -23.11 -23.21 -25.59 -27.46 -25.76 -26.00 -21.75 -23.92 -24.54 -24.43 -26.73 -19.74 -14.61 -11.01 -11.20 -11.33 -10.91 -10.58 -12.98 -14.28 -14.19 -11.62 -8.66 -8.48 -8.57 -7.84 -12.04 -11.64 -11.54 -11.02 -11.91 -11.15 -10.49 -10.31 -8.88 -1.25 -8.48 -11.02 -10.08 -9.64 -11.48 -12.39 -12.48 -12.61 -13.60 -14.23 -14.82 -11.04
-24.61 -24.73 -24.48 -22.51 -23.58 -25.96 -30.25 -28.66 -28.91 -27.15 -26.86 -27.77 -21.68 -21.58 -21.73 -17.05 -16.89 -17.28 -12.95 -10.44 -9.21 -9.07 -11.63 -11.81 -10.59 -8.12 -8.85 -8.40 -7.57 -8.34 -9.23 -10.96 -13.21 -16.37 -16.78 -16.48 -14.79 -12.68 -8.07 -8.63 -8.77 -8.22 -8.32 -9.90 -5.83 -3.02 -1.97 -2.93 -5.07 -8.47 -12.47 -13.88 -14.51 -17.01
-26.29 -28.69 -25.45 -25.86 -27.83 -29.56 -29.13 -30.51 -29.56 -27.96 -26.21 -24.71 -22.45 -14.61 -14.77 -13.62 -11.14 -8.04 -9.36 -10.19 -11.79 -12.76 -11.74 -11.54 -11.78 -12.38 -13.74 -14.21 -14.35 -13.46 -12.73 -11.96 -11.95 -14.62 -19.15 -18.27 -15.25 -10.90 -10.05 -9.67 -9.29 -8.98 -9.82 -15.15 -11.90 -13.09 -9.04 -13.41 -14.74 -20.92 -21.20 -21.97 -23.64 -23.77
-28.49 -26.44 -25.56 -25.26 -26.20 -27.50 -28.24 -28.53 -27.17 -24.73 -21.62 -18.84 -17.44 -18.19 -20.81 -17.33 -13.61 -9.76 -10.91 -10.81 -11.95 -12.12 -13.10 -14.63 -14.46 -13.64 -14.94 -16.16 -16.68 -17.18 -16.68 -14.05 -11.57 -13.47 -13.21 -12.46 -11.91 -12.20 -10.98 -10.16 -7.83 -13.93 -21.75 -21.15 -21.75 -24.57 -21.93 -23.31 -25.32 -24.31 -23.97 -23.96 -23.76 -21.35
-25.00 -31.13 -28.89 -29.13 -27.60 -26.77 -29.11 -26.26 -28.24 -25.87 -22.41 -20.33 -21.20 -19.57 -19.30 -18.54 -20.51 -17.31 -11.95 -12.48 -14.79 -15.65 -14.26 -15.38 -17.04 -17.06 -14.34 -14.95 -20.38 -21.65 -13.59 -16.12 -16.19 -16.78 -16.42 -14.67 -15.14 -13.63 -11.90 -10.75 -13.40 -16.44 -18.38 -19.53 -21.01 -23.16 -23.28 -25.18 -24.37 -23.73 -23.45 -25.55 -25.47 -25.55
-24.94 -22.56 -22.41 -21.82 -24.08 -23.86 -24.58 -25.18 -22.28 -22.32 -21.20 -21.49 -20.27 -20.61 -20.38 -17.66 -20.37 -15.26 -11.51 -11.25 -15.03 -17.70 -18.52 -19.37 -17.52 -16.53 -18.50 -23.72 -21.70 -24.23 -21.81 -25.38 -22.88 -12.12 -11.54 -9.33 -9.96 -9.41 -11.59 -12.35 -17.52 -21.36 -22.53 -23.06 -21.74 -21.58 -23.38 -24.52 -24.49 -25.52 -26.17 -26.47 -26.62 -26.05